Portada
METAR-TAF:

METAR-TAF

Aeroports :

Barrancabermeja, Colòmbia

latitud: 07-01N, longitud: 073-48W, altitud: 126 m

Observació

L'informe es va fer fa 46 minuts, a les 19:00 UTC
Vent 3 kt del Oest
Temperatura 33°C
Humitat 56%
Pressió 1006 hPa
Visibilitat 10 km o més
Núvols disperses a una alçada de 2000 ft

METAR: SKEJ 181900Z 27003KT 9999 SCT020 33/23 A2972

Hora: 14:46 (19:46 UTC)


TAF: manca

Observacions i pronòstics meteorològics de més de 4000 aeroports (METAR i TAF).

Les estacions disponibles són els punts grocs i vermells al mapa.

Posi el ratolí al punt desitjat per veure el nom de l'estació.

Feu clic per veure les observacions i els pronòstics meteorològics.

Per canviar el mapa: feu clic els botons verds amb una creu de color negre per apropar; al botó verd amb un guió per allunyar la imatge; o en les fletxes verdes per a mapes adjacents.


METAR-TAF: